FW2182 Weather Reports


time (UTC)temp
C
wind
direction
speed
KPH
gust
KPH
rain 1hr
cm
rain 24hr
cm
rain mn
cm
humidity
%
barometer
mb
20260503131344 6 259 0.0 1.6 0.00 0.00 0.00 74 1017.5
20260503130845 5 281 0.0 1.6 0.00 0.00 0.00 73 1017.6
20260503130325 5 267 0.0 0.0 0.00 0.00 0.00 75 1017.5
20260503071312 2 244 0.0 0.0 0.00 0.03 0.00 88 1015.7
20260503070814 2 244 0.0 0.0 0.00 0.03 0.00 87 1015.8
20260503070315 2 244 0.0 0.0 0.00 0.03 0.00 87 1015.8
20260503054818 1 292 0.0 0.0 0.00 0.03 0.00 83 1015.9
20260503054319 1 292 0.0 0.0 0.00 0.03 0.00 83 1015.9
20260503053822 2 292 0.0 0.0 0.00 0.03 0.00 83 1015.9
20260503053322 2 292 0.0 0.0 0.00 0.03 0.00 82 1015.9
20260503052823 2 292 0.0 0.0 0.00 0.03 0.00 82 1016.0
20260503052326 2 292 0.0 0.0 0.00 0.03 0.00 82 1016.0
20260503051848 2 292 0.0 0.0 0.00 0.03 0.00 82 1016.0
20260503051349 2 292 0.0 0.0 0.00 0.03 0.00 82 1016.0
20260503050812 2 292 0.0 0.0 0.00 0.03 0.00 82 1016.1
20260503050312 2 292 0.0 0.0 0.00 0.03 0.00 81 1016.2
20260503045813 2 292 0.0 0.0 0.00 0.03 0.00 81 1016.2
20260503045316 2 292 0.0 0.0 0.00 0.03 0.00 81 1016.2
20260503044818 2 292 0.0 0.0 0.00 0.03 0.00 81 1016.2
20260503044320 2 292 0.0 0.0 0.00 0.03 0.00 80 1016.1
20260503043822 2 292 0.0 0.0 0.00 0.03 0.00 79 1016.1
20260503043323 2 292 0.0 0.0 0.00 0.03 0.00 79 1016.2
20260503042824 2 292 0.0 0.0 0.00 0.03 0.00 79 1016.2
20260503042324 2 293 0.0 0.0 0.00 0.03 0.00 79 1016.3
20260503041827 2 294 0.0 0.0 0.00 0.03 0.00 79 1016.3
20260503041328 2 293 0.0 0.0 0.00 0.03 0.00 79 1016.3
20260503040851 2 292 0.0 0.0 0.00 0.03 0.00 79 1016.4
20260503040331 3 292 0.0 0.0 0.00 0.03 0.03 78 1016.3
20260503035827 3 293 0.0 0.0 0.00 0.03 0.03 78 1016.3
20260502194312 6 284 0.0 0.0 0.00 0.25 0.03 78 1014.9
20260502193813 6 360 0.0 0.0 0.00 0.25 0.03 81 1015.0
20260502193333 5 321 0.0 0.0 0.00 0.25 0.03 81 1015.0
20260502192812 5 321 0.0 0.0 0.00 0.25 0.03 81 1015.1
20260502192313 5 321 0.0 0.0 0.00 0.25 0.03 81 1015.2
20260502191835 5 320 0.0 0.0 0.00 0.25 0.03 81 1015.2
20260502191315 5 300 0.0 0.0 0.00 0.25 0.03 80 1015.3
20260502190816 5 313 0.0 0.0 0.00 0.25 0.03 79 1015.4
20260502190315 5 311 0.0 0.0 0.00 0.25 0.03 79 1015.4
20260502185816 5 306 0.0 1.6 0.00 0.25 0.03 78 1015.4